Overview Statistics Trail Chart Weather Telemetry Raw packets
 

This is the latest recevied weather packets stored in our database for station/object PA5MB-15. If no packets are shown the sender has not sent any weather packets the latest 10 day(s).

<< 30 31 32 33 34 35 36 >>
Time Temp. Humidity Pressure Rain* Wind** Luminosity Snow
1777826723 15° C 97% 1011.5 hPa 3.56 mm - 4 W/m² -
1777826436 15° C 96% 1011.5 hPa 3.56 mm - 7 W/m² -
1777826134 15° C 96% 1011.4 hPa 3.56 mm - 9 W/m² -
1777825831 15° C 96% 1011.6 hPa 2.79 mm - 6 W/m² -
1777825531 15.56° C 95% 1011.7 hPa 2.54 mm - 2 W/m² -
1777825234 15.56° C 95% 1011.6 hPa 1.02 mm - 1 W/m² -
1777824934 16.11° C 95% 1011.6 hPa 1.02 mm - 1 W/m² -
1777824631 16.11° C 95% 1011.5 hPa 1.02 mm - 2 W/m² -
1777824324 16.11° C 95% 1011.6 hPa 1.02 mm - 2 W/m² -
1777824034 16.11° C 94% 1011.5 hPa 1.02 mm - 3 W/m² -
1777823737 16.67° C 93% 1011.6 hPa 0.76 mm - 4 W/m² -
1777823431 17.22° C 92% 1011.5 hPa 0 mm - 6 W/m² -
1777823131 17.22° C 92% 1011.4 hPa 0 mm - 7 W/m² -
1777822825 17.22° C 91% 1011.4 hPa 0 mm - 9 W/m² -
1777822534 17.22° C 92% 1011.3 hPa 0 mm - 10 W/m² -
1777822244 17.22° C 92% 1011.4 hPa 0 mm - 12 W/m² -
1777821931 17.22° C 92% 1011.4 hPa 0 mm - 13 W/m² -
1777821634 17.22° C 91% 1011.4 hPa 0 mm - 13 W/m² -
1777821337 17.22° C 91% 1011.5 hPa 0 mm - 14 W/m² -
1777821021 17.22° C 91% 1011.5 hPa 0 mm - 16 W/m² -
1777820731 17.22° C 91% 1011.5 hPa 0 mm - 18 W/m² -
1777820435 17.22° C 91% 1011.6 hPa 0 mm - 17 W/m² -
1777820134 17.22° C 91% 1011.6 hPa 0 mm - 20 W/m² -
1777819824 17.22° C 91% 1011.6 hPa 0 mm - 22 W/m² -
1777819523 17.22° C 91% 1011.7 hPa 0.76 mm - 20 W/m² -

* Rain latest hour (hover to see other rain measurements)
** Current wind speed in m/s (hover to see current wind gust speed)